Location: Eschertshofen
(49.3064°N, 11.5756°E)
Time: 01:41:22
(UTC+00:00)

Iridium 26 - Pass Details

Date: 25 September 2021
Orbit: 772 x 775 km, 86.4° (Epoch: 21 October)

Event Time Altitude Azimuth Distance (km) Brightness Sun altitude
Exits shadow 20:57:31 33° 345° (NNW) 1,293 7.0 -34.7°
Drops below altitude 10° 21:00:26 10° 358° (N) 2,334 8.5 -35.0°
Sets 21:02:49 0° 2° (N) 3,265 9.4 -35.2°
